Regional Weather Roundup
Issued by NWS Charleston, WV

Home | Current Version | Previous Version | Graphics & Text | Print | Product List | Glossary On
Versions: 1 2 3 4 5 6 7 8 9 10 11 12 13 14 15 16 17 18 19 20 21 22 23 24 25 26 27 28 29 30 31 32 33 34 35 36 37 38 39 40 41 42 43 44 45 46 47 48 49 50
000
ASUS41 KRLX 022110
RWRRLX
West Virginia Regional Weather Roundup
National Weather Service Charleston WV
500 PM EDT THU JUL 02 2015

Note: "fair" indicates few or no clouds below 12,000 feet with no
significant weather and/or obstructions to visibility.

WVZ003-022200-
Northern Panhandle of West Virginia

CITY           SKY/WX    TMP DP  RH WIND       PRES   REMARKS
WHEELING       PTSUNNY   75  56  51 N3        29.93F
$$

WVZ009-022200-
Northwest West Virginia

CITY           SKY/WX    TMP DP  RH WIND       PRES   REMARKS
PARKERSBURG    CLOUDY    75  62  64 CALM      29.94F
$$

WVZ006-022200-
Western West Virginia

CITY           SKY/WX    TMP DP  RH WIND       PRES   REMARKS
HUNTINGTON     CLOUDY    70  66  87 E6        29.90F FOG
$$

WVZ015-022200-
West Central West Virginia

CITY           SKY/WX    TMP DP  RH WIND       PRES   REMARKS
CHARLESTON     PTSUNNY   73  63  70 CALM      29.92F HAZE
$$

WVZ022-031-022200-
North Central West Virginia

CITY           SKY/WX    TMP DP  RH WIND       PRES   REMARKS
CLARKSBURG     CLOUDY    76  60  57 N3        29.93F
MORGANTOWN     CLOUDY    76  55  48 CALM      29.94F
$$

WVZ025-035-042-045-022200-
Southern West Virginia

CITY           SKY/WX    TMP DP  RH WIND       PRES   REMARKS
BECKLEY        CLOUDY    67  63  87 NE3       29.98F FOG
LOGAN          CLOUDY    70  68  94 CALM      29.90S
BLUEFIELD      CLOUDY    69  63  81 N6        29.99F
LEWISBURG      CLOUDY    66  59  78 NE3       29.97F HAZE
$$

WVZ047-022200-
Northern Mountains of West Virginia

CITY           SKY/WX    TMP DP  RH WIND       PRES   REMARKS
ELKINS         CLOUDY    70  57  63 N3        29.97F
$$

WVZ052-022200-
Eastern Panhandle of West Virginia

CITY           SKY/WX    TMP DP  RH WIND       PRES   REMARKS
MARTINSBURG    CLOUDY    74  65  73 SE6       29.91F
PETERSBURG     CLOUDY    75  60  58 CALM      29.92F
$$



USA.gov is the U.S. government's official web portal to all federal, state and local government web resources and services.